Time,TemperatureF,DewpointF,PressureIn,WindDirection,WindDirectionDegrees,WindSpeedMPH,WindSpeedGustMPH,Humidity,HourlyPrecipIn,Conditions,Clouds,dailyrainin,SoftwareType,DateUTC
2013-03-03 00:01:00,63.0,-99.9,-100.00,North,-999,-999.0,-999.0,-999,-99.99,,,-99.99,,2013-03-03 08:01:00,
2013-03-03 00:11:00,63.0,-99.9,-100.00,North,-999,-999.0,-999.0,-999,-99.99,,,-99.99,,2013-03-03 08:11:00,
2013-03-03 00:22:00,63.0,-99.9,-100.00,North,-999,-999.0,-999.0,-999,-99.99,,,-99.99,,2013-03-03 08:22:00,
2013-03-03 00:42:00,65.0,-99.9,-100.00,North,-999,3.0,-999.0,-999,-99.99,,,-99.99,,2013-03-03 08:42:00,
2013-03-03 00:54:00,-999.0,-99.9,-100.00,West,270,1.0,-999.0,-999,-99.99,,,-99.99,,2013-03-03 08:54:00,
2013-03-03 01:02:00,-999.0,-99.9,-100.00,West,281,18.0,-999.0,-999,-99.99,,,-99.99,,2013-03-03 09:02:00,
2013-03-03 01:12:00,-999.0,-99.9,-100.00,West,264,24.0,-999.0,-999,-99.99,,,-99.99,,2013-03-03 09:12:00,
2013-03-03 01:22:00,-999.0,-99.9,-100.00,West,264,24.0,-999.0,-999,-99.99,,,-99.99,,2013-03-03 09:22:00,
2013-03-03 01:32:00,-999.0,-99.9,-100.00,West,270,19.0,-999.0,-999,-99.99,,,-99.99,,2013-03-03 09:32:00,
2013-03-03 01:52:00,-999.0,-99.9,-100.00,West,281,6.0,-999.0,-999,-99.99,,,-99.99,,2013-03-03 09:52:00,
2013-03-03 02:01:00,-999.0,-99.9,-100.00,West,281,6.0,-999.0,-999,-99.99,,,-99.99,,2013-03-03 10:01:00,
2013-03-03 02:12:00,-999.0,-99.9,-100.00,West,281,6.0,-999.0,-999,-99.99,,,-99.99,,2013-03-03 10:12:00,
2013-03-03 02:22:00,-999.0,-99.9,-100.00,West,281,6.0,-999.0,-999,-99.99,,,-99.99,,2013-03-03 10:22:00,
2013-03-03 02:53:00,61.0,-99.9,-100.00,North,-999,-999.0,-999.0,-999,-99.99,,,-99.99,,2013-03-03 10:53:00,
2013-03-03 03:02:00,61.0,-99.9,-100.00,North,-999,-999.0,-999.0,-999,-99.99,,,-99.99,,2013-03-03 11:02:00,
2013-03-03 03:11:00,61.0,-99.9,-100.00,North,-999,-999.0,-999.0,-999,-99.99,,,-99.99,,2013-03-03 11:11:00,
2013-03-03 03:22:00,61.0,-99.9,-100.00,North,-999,-999.0,-999.0,-999,-99.99,,,-99.99,,2013-03-03 11:22:00,
2013-03-03 03:32:00,-999.0,-99.9,-100.00,SSW,213,1.0,-999.0,-999,-99.99,,,-99.99,,2013-03-03 11:32:00,
2013-03-03 03:42:00,-999.0,-99.9,-100.00,North,-999,1.0,-999.0,-999,-99.99,,,-99.99,,2013-03-03 11:42:00,
2013-03-03 03:53:00,-999.0,-99.9,-100.00,North,-999,1.0,-999.0,-999,-99.99,,,-99.99,,2013-03-03 11:53:00,
2013-03-03 04:02:00,-999.0,-99.9,-100.00,North,-999,1.0,-999.0,-999,-99.99,,,-99.99,,2013-03-03 12:02:00,
2013-03-03 04:11:00,-999.0,-99.9,-100.00,North,-999,1.0,-999.0,-999,-99.99,,,-99.99,,2013-03-03 12:11:00,
2013-03-03 04:22:00,-999.0,-99.9,-100.00,WNW,303,3.0,-999.0,-999,-99.99,,,-99.99,,2013-03-03 12:22:00,
2013-03-03 04:32:00,-999.0,-99.9,-100.00,WNW,303,3.0,-999.0,-999,-99.99,,,-99.99,,2013-03-03 12:32:00,
2013-03-03 05:32:00,-999.0,-99.9,-100.00,WNW,292,2.0,-999.0,-999,-99.99,,,-99.99,,2013-03-03 13:32:00,
2013-03-03 05:42:00,-999.0,-99.9,-100.00,North,-999,5.0,-999.0,-999,-99.99,,,-99.99,,2013-03-03 13:42:00,
2013-03-03 05:52:00,-999.0,-99.9,-100.00,North,-999,5.0,-999.0,-999,-99.99,,,-99.99,,2013-03-03 13:52:00,
2013-03-03 06:02:00,-999.0,-99.9,-100.00,WSW,258,22.0,-999.0,-999,-99.99,,,-99.99,,2013-03-03 14:02:00,
2013-03-03 06:11:00,-999.0,-99.9,-100.00,WSW,247,18.0,-999.0,-999,-99.99,,,-99.99,,2013-03-03 14:11:00,
2013-03-03 06:22:00,-999.0,-99.9,-100.00,West,270,21.0,-999.0,-999,-99.99,,,-99.99,,2013-03-03 14:22:00,
2013-03-03 06:32:00,-999.0,-99.9,-100.00,South,191,19.0,-999.0,-999,-99.99,,,-99.99,,2013-03-03 14:32:00,
2013-03-03 06:42:00,-999.0,-99.9,-100.00,West,281,19.0,-999.0,-999,-99.99,,,-99.99,,2013-03-03 14:42:00,
2013-03-03 06:52:00,-999.0,-99.9,-100.00,West,281,19.0,-999.0,-999,-99.99,,,-99.99,,2013-03-03 14:52:00,
2013-03-03 07:02:00,-999.0,-99.9,-100.00,West,270,24.0,-999.0,-999,-99.99,,,-99.99,,2013-03-03 15:02:00,
2013-03-03 07:11:00,-999.0,-99.9,-100.00,WNW,298,20.0,-999.0,-999,-99.99,,,-99.99,,2013-03-03 15:11:00,
2013-03-03 07:22:00,-999.0,-99.9,-100.00,WSW,241,23.0,-999.0,-999,-99.99,,,-99.99,,2013-03-03 15:22:00,
2013-03-03 07:33:00,-999.0,-99.9,-100.00,WNW,292,22.0,-999.0,-999,-99.99,,,-99.99,,2013-03-03 15:33:00,
2013-03-03 07:52:00,-999.0,-99.9,-100.00,West,264,21.0,-999.0,-999,-99.99,,,-99.99,,2013-03-03 15:52:00,
2013-03-03 08:02:00,64.0,-99.9,-100.00,North,-999,-999.0,-999.0,-999,-99.99,,,-99.99,,2013-03-03 16:02:00,
2013-03-03 08:12:00,-999.0,-99.9,-100.00,SW,236,16.0,-999.0,-999,-99.99,,,-99.99,,2013-03-03 16:12:00,
2013-03-03 08:22:00,-999.0,-99.9,-100.00,SW,236,16.0,-999.0,-999,-99.99,,,-99.99,,2013-03-03 16:22:00,
2013-03-03 08:32:00,-999.0,-99.9,-100.00,South,191,20.0,-999.0,-999,-99.99,,,-99.99,,2013-03-03 16:32:00,
2013-03-03 08:42:00,-999.0,-99.9,-100.00,North,-999,4.0,-999.0,-999,-99.99,,,-99.99,,2013-03-03 16:42:00,
2013-03-03 08:52:00,-999.0,-99.9,-100.00,North,-999,4.0,-999.0,-999,-99.99,,,-99.99,,2013-03-03 16:52:00,
2013-03-03 09:02:00,-999.0,-99.9,-100.00,North,-999,4.0,-999.0,-999,-99.99,,,-99.99,,2013-03-03 17:02:00,
2013-03-03 09:12:00,67.0,-99.9,-100.00,North,-999,-999.0,-999.0,-999,-99.99,,,-99.99,,2013-03-03 17:12:00,
2013-03-03 09:22:00,67.0,-99.9,-100.00,North,-999,-999.0,-999.0,-999,-99.99,,,-99.99,,2013-03-03 17:22:00,
2013-03-03 09:42:00,-999.0,-99.9,-100.00,North,-999,4.0,-999.0,-999,-99.99,,,-99.99,,2013-03-03 17:42:00,
2013-03-03 09:52:00,-999.0,-99.9,-100.00,North,-999,4.0,-999.0,-999,-99.99,,,-99.99,,2013-03-03 17:52:00,
2013-03-03 10:02:00,-999.0,-99.9,-100.00,West,275,6.0,-999.0,-999,-99.99,,,-99.99,,2013-03-03 18:02:00,
2013-03-03 10:11:00,68.0,-99.9,-100.00,North,-999,-999.0,-999.0,-999,-99.99,,,-99.99,,2013-03-03 18:11:00,
2013-03-03 10:22:00,68.0,-99.9,-100.00,North,-999,-999.0,-999.0,-999,-99.99,,,-99.99,,2013-03-03 18:22:00,
2013-03-03 10:32:00,-999.0,-99.9,-100.00,WNW,292,15.0,-999.0,-999,-99.99,,,-99.99,,2013-03-03 18:32:00,
2013-03-03 11:02:00,71.0,-99.9,-100.00,SSW,208,-999.0,-999.0,-999,-99.99,,,-99.99,,2013-03-03 19:02:00,
2013-03-03 11:11:00,69.0,-99.9,-100.00,West,264,10.0,-999.0,-999,-99.99,,,-99.99,,2013-03-03 19:11:00,
2013-03-03 11:22:00,69.0,-99.9,-100.00,West,264,10.0,-999.0,-999,-99.99,,,-99.99,,2013-03-03 19:22:00,
2013-03-03 11:32:00,-999.0,-99.9,-100.00,WSW,241,11.0,-999.0,-999,-99.99,,,-99.99,,2013-03-03 19:32:00,
2013-03-03 11:43:00,-999.0,-99.9,-100.00,North,-999,3.0,-999.0,-999,-99.99,,,-99.99,,2013-03-03 19:43:00,
2013-03-03 12:02:00,-999.0,-99.9,-100.00,West,264,14.0,-999.0,-999,-99.99,,,-99.99,,2013-03-03 20:02:00,
2013-03-03 12:12:00,71.0,-99.9,-100.00,North,-999,-999.0,-999.0,-999,-99.99,,,-99.99,,2013-03-03 20:12:00,
2013-03-03 12:22:00,-999.0,-99.9,-100.00,West,270,8.0,-999.0,-999,-99.99,,,-99.99,,2013-03-03 20:22:00,
2013-03-03 12:32:00,-999.0,-99.9,-100.00,West,270,8.0,-999.0,-999,-99.99,,,-99.99,,2013-03-03 20:32:00,
2013-03-03 12:43:00,-999.0,-99.9,-100.00,WSW,258,6.0,-999.0,-999,-99.99,,,-99.99,,2013-03-03 20:43:00,
2013-03-03 12:53:00,-999.0,-99.9,-100.00,WSW,258,6.0,-999.0,-999,-99.99,,,-99.99,,2013-03-03 20:53:00,
2013-03-03 13:02:00,-999.0,-99.9,-100.00,WSW,258,6.0,-999.0,-999,-99.99,,,-99.99,,2013-03-03 21:02:00,
2013-03-03 13:12:00,-999.0,-99.9,-100.00,WNW,298,10.0,-999.0,-999,-99.99,,,-99.99,,2013-03-03 21:12:00,
2013-03-03 13:22:00,-999.0,-99.9,-100.00,WNW,298,10.0,-999.0,-999,-99.99,,,-99.99,,2013-03-03 21:22:00,
2013-03-03 13:32:00,71.0,-99.9,-100.00,West,275,11.0,-999.0,-999,-99.99,,,-99.99,,2013-03-03 21:32:00,
2013-03-03 13:52:00,-999.0,-99.9,-100.00,WSW,253,13.0,-999.0,-999,-99.99,,,-99.99,,2013-03-03 21:52:00,
2013-03-03 14:02:00,-999.0,-99.9,-100.00,WSW,253,13.0,-999.0,-999,-99.99,,,-99.99,,2013-03-03 22:02:00,
2013-03-03 14:11:00,-999.0,-99.9,-100.00,West,264,10.0,-999.0,-999,-99.99,,,-99.99,,2013-03-03 22:11:00,
2013-03-03 14:22:00,-999.0,-99.9,-100.00,West,264,10.0,-999.0,-999,-99.99,,,-99.99,,2013-03-03 22:22:00,
2013-03-03 14:32:00,-999.0,-99.9,-100.00,West,270,9.0,-999.0,-999,-99.99,,,-99.99,,2013-03-03 22:32:00,
2013-03-03 14:42:00,-999.0,-99.9,-100.00,WNW,286,9.0,-999.0,-999,-99.99,,,-99.99,,2013-03-03 22:42:00,
2013-03-03 14:53:00,-999.0,-99.9,-100.00,WNW,286,9.0,-999.0,-999,-99.99,,,-99.99,,2013-03-03 22:53:00,
2013-03-03 15:02:00,-999.0,-99.9,-100.00,WNW,286,9.0,-999.0,-999,-99.99,,,-99.99,,2013-03-03 23:02:00,
2013-03-03 15:11:00,-999.0,-99.9,-100.00,WNW,286,9.0,-999.0,-999,-99.99,,,-99.99,,2013-03-03 23:11:00,
2013-03-03 15:22:00,-999.0,-99.9,-100.00,West,275,9.0,-999.0,-999,-99.99,,,-99.99,,2013-03-03 23:22:00,
2013-03-03 15:32:00,-999.0,-99.9,-100.00,West,275,9.0,-999.0,-999,-99.99,,,-99.99,,2013-03-03 23:32:00,
2013-03-03 15:42:00,-999.0,-99.9,-100.00,North,-999,3.0,-999.0,-999,-99.99,,,-99.99,,2013-03-03 23:42:00,
2013-03-03 15:52:00,-999.0,-99.9,-100.00,North,-999,3.0,-999.0,-999,-99.99,,,-99.99,,2013-03-03 23:52:00,
2013-03-03 16:02:00,-999.0,-99.9,-100.00,WSW,241,7.0,-999.0,-999,-99.99,,,-99.99,,2013-03-04 00:02:00,
2013-03-03 16:11:00,-999.0,-99.9,-100.00,WSW,241,7.0,-999.0,-999,-99.99,,,-99.99,,2013-03-04 00:11:00,
2013-03-03 16:22:00,-999.0,-99.9,-100.00,West,264,9.0,-999.0,-999,-99.99,,,-99.99,,2013-03-04 00:22:00,
2013-03-03 16:32:00,-999.0,-99.9,-100.00,West,264,9.0,-999.0,-999,-99.99,,,-99.99,,2013-03-04 00:32:00,
2013-03-03 17:02:00,-999.0,-99.9,-100.00,West,275,8.0,-999.0,-999,-99.99,,,-99.99,,2013-03-04 01:02:00,
2013-03-03 17:12:00,69.0,-99.9,-100.00,North,-999,-999.0,-999.0,-999,-99.99,,,-99.99,,2013-03-04 01:12:00,
2013-03-03 17:22:00,69.0,-99.9,-100.00,North,-999,-999.0,-999.0,-999,-99.99,,,-99.99,,2013-03-04 01:22:00,
2013-03-03 17:32:00,67.0,-99.9,-100.00,North,-999,-999.0,-999.0,-999,-99.99,,,-99.99,,2013-03-04 01:32:00,
2013-03-03 17:42:00,-999.0,-99.9,-100.00,North,-999,2.0,-999.0,-999,-99.99,,,-99.99,,2013-03-04 01:42:00,
2013-03-03 18:22:00,-999.0,-99.9,-100.00,West,281,5.0,-999.0,-999,-99.99,,,-99.99,,2013-03-04 02:22:00,
2013-03-03 18:32:00,-999.0,-99.9,-100.00,SW,230,13.0,-999.0,-999,-99.99,,,-99.99,,2013-03-04 02:32:00,
2013-03-03 18:42:00,-999.0,-99.9,-100.00,North,-999,3.0,-999.0,-999,-99.99,,,-99.99,,2013-03-04 02:42:00,
2013-03-03 18:53:00,-999.0,-99.9,-100.00,North,-999,3.0,-999.0,-999,-99.99,,,-99.99,,2013-03-04 02:53:00,
2013-03-03 19:02:00,-999.0,-99.9,-100.00,North,-999,3.0,-999.0,-999,-99.99,,,-99.99,,2013-03-04 03:02:00,
2013-03-03 19:22:00,63.0,-99.9,-100.00,North,-999,-999.0,-999.0,-999,-99.99,,,-99.99,,2013-03-04 03:22:00,
2013-03-03 19:32:00,-999.0,-99.9,-100.00,WSW,253,5.0,-999.0,-999,-99.99,,,-99.99,,2013-03-04 03:32:00,
2013-03-03 19:53:00,-999.0,-99.9,-100.00,WSW,241,11.0,-999.0,-999,-99.99,,,-99.99,,2013-03-04 03:53:00,
2013-03-03 20:02:00,-999.0,-99.9,-100.00,West,275,13.0,-999.0,-999,-99.99,,,-99.99,,2013-03-04 04:02:00,
2013-03-03 20:11:00,-999.0,-99.9,-100.00,WNW,292,16.0,-999.0,-999,-99.99,,,-99.99,,2013-03-04 04:11:00,
2013-03-03 20:22:00,-999.0,-99.9,-100.00,West,270,23.0,-999.0,-999,-99.99,,,-99.99,,2013-03-04 04:22:00,
2013-03-03 20:32:00,-999.0,-99.9,-100.00,West,275,32.0,-999.0,-999,-99.99,,,-99.99,,2013-03-04 04:32:00,
2013-03-03 20:42:00,-999.0,-99.9,-100.00,North,-999,5.0,-999.0,-999,-99.99,,,-99.99,,2013-03-04 04:42:00,
2013-03-03 20:52:00,-999.0,-99.9,-100.00,WSW,253,31.0,-999.0,-999,-99.99,,,-99.99,,2013-03-04 04:52:00,
2013-03-03 21:01:00,-999.0,-99.9,-100.00,WNW,292,27.0,-999.0,-999,-99.99,,,-99.99,,2013-03-04 05:01:00,
2013-03-03 21:11:00,-999.0,-99.9,-100.00,WNW,286,29.0,-999.0,-999,-99.99,,,-99.99,,2013-03-04 05:11:00,
2013-03-03 21:22:00,-999.0,-99.9,-100.00,West,264,30.0,-999.0,-999,-99.99,,,-99.99,,2013-03-04 05:22:00,
2013-03-03 21:32:00,-999.0,-99.9,-100.00,West,264,35.0,-999.0,-999,-99.99,,,-99.99,,2013-03-04 05:32:00,
2013-03-03 21:43:00,-999.0,-99.9,-100.00,North,-999,5.0,-999.0,-999,-99.99,,,-99.99,,2013-03-04 05:43:00,
2013-03-03 21:53:00,-999.0,-99.9,-100.00,North,-999,5.0,-999.0,-999,-99.99,,,-99.99,,2013-03-04 05:53:00,
2013-03-03 22:02:00,-999.0,-99.9,-100.00,West,275,31.0,-999.0,-999,-99.99,,,-99.99,,2013-03-04 06:02:00,
2013-03-03 22:11:00,-999.0,-99.9,-100.00,WNW,286,24.0,-999.0,-999,-99.99,,,-99.99,,2013-03-04 06:11:00,
2013-03-03 22:22:00,-999.0,-99.9,-100.00,West,281,26.0,-999.0,-999,-99.99,,,-99.99,,2013-03-04 06:22:00,
2013-03-03 22:32:00,-999.0,-99.9,-100.00,West,281,25.0,-999.0,-999,-99.99,,,-99.99,,2013-03-04 06:32:00,
2013-03-03 22:52:00,-999.0,-99.9,-100.00,WNW,286,19.0,-999.0,-999,-99.99,,,-99.99,,2013-03-04 06:52:00,
2013-03-03 23:02:00,-999.0,-99.9,-100.00,West,264,16.0,-999.0,-999,-99.99,,,-99.99,,2013-03-04 07:02:00,
2013-03-03 23:11:00,-999.0,-99.9,-100.00,WNW,286,0.0,-999.0,-999,-99.99,,,-99.99,,2013-03-04 07:11:00,
2013-03-03 23:22:00,57.0,-99.9,-100.00,North,-999,-999.0,-999.0,-999,-99.99,,,-99.99,,2013-03-04 07:22:00,
2013-03-03 23:32:00,-999.0,-99.9,-100.00,West,275,13.0,-999.0,-999,-99.99,,,-99.99,,2013-03-04 07:32:00,
2013-03-03 23:42:00,-999.0,-99.9,-100.00,North,-999,3.0,-999.0,-999,-99.99,,,-99.99,,2013-03-04 07:42:00,